Home   Weather   Medicine Hat   Past weeks

Flag for Canada Past Weather in Medicine Hat, Alberta, Canada — Yesterday and Last 2 Weeks

Now
82 °F

More clouds than sun.


Feels Like: 83 °F
Forecast: 60 / 83 °F
Wind: 5 mph from Southwest

Location: Medicine Hat

Current Time: Aug 31, 2016 at 7:57:34 PM

Latest Report: Aug 31, 2016 at 7:00 PM


Visibility: 30 mi

Pressure: 29.80 "Hg (27.65 "Hg at 661m altitude)

Humidity: 51%

Dew Point: 63 °F

Location of Medicine HatLocation

Past Weather in Medicine Hat — Graph

°F

Medicine Hat Temperature Yesterday

Maximum temperature yesterday: 90 °F (at 4:00 PM)
Minimum temperature yesterday: 59 °F (at 6:00 AM)
Average temperature yesterday: 72 °F

High & Low Weather Summary for the Past Weeks

 TemperatureHumidityPressure
High91 °F (Aug 21, 4:00 PM)100% (Aug 19, 3:00 AM)30.32 "Hg (Aug 19, 3:00 AM)
Low46 °F (Aug 19, 5:00 AM)15% (Aug 22, 3:00 PM)29.46 "Hg (Aug 22, 4:00 AM)
Average64 °F64%29.99 "Hg
* Reported Aug 16 6:00 PM — Aug 31 6:00 PM, Medicine Hat, Weather by CustomWeather, © 2016

Note: Actual official high and low records may vary slightly from our data, if they occured in-between our weather recording intervals... More about our weather records

Advertising

Medicine Hat Weather History for the Previous 24 Hours

Scroll right to see more
 ConditionsComfort  
Time TempWeatherWind HumidityBarometerVisibility
6:00 PM
Wed, Aug 31
84 °FPartly sunny.5 mph45%29.78 "Hg30 mi
5:00 PM86 °FPartly sunny.7 mph40%29.80 "Hg15 mi
4:00 PM90 °FPartly sunny.5 mph29%29.79 "Hg15 mi
3:00 PM88 °FPartly sunny.2 mph40%29.81 "Hg15 mi
2:00 PM86 °FPartly sunny.No wind43%29.83 "Hg15 mi
1:00 PM82 °FPartly sunny.3 mph48%29.85 "Hg15 mi
12:00 PM79 °FPartly sunny.3 mph54%29.88 "Hg15 mi
11:00 AM75 °FPartly sunny.2 mph61%29.89 "Hg15 mi
10:00 AM70 °FMore clouds than sun.2 mph69%29.90 "Hg15 mi
9:00 AM66 °FBroken clouds.No wind78%29.91 "Hg15 mi
8:00 AM63 °FMore clouds than sun.8 mph83%29.90 "Hg15 mi
7:00 AM61 °FPassing clouds.7 mph88%29.91 "Hg30 mi
6:00 AM63 °FClear.5 mph83%29.92 "Hg9 mi
5:00 AM64 °FOvercast.7 mph78%29.93 "Hg9 mi
4:00 AM68 °FPassing clouds.8 mph69%29.91 "Hg9 mi
3:00 AM66 °FClear.5 mph73%29.93 "Hg9 mi
2:00 AM68 °FClear.8 mph64%29.94 "Hg9 mi
1:00 AM68 °FPassing clouds.8 mph60%29.95 "Hg9 mi
12:00 AM66 °FClear.5 mph64%29.96 "Hg9 mi
11:00 PM
Tue, Aug 30
70 °FPassing clouds.2 mph53%29.97 "Hg9 mi
10:00 PM72 °FPassing clouds.5 mph53%29.98 "Hg9 mi
9:00 PM73 °FPartly sunny.5 mph47%29.98 "Hg15 mi
8:00 PM82 °FPartly sunny.10 mph32%29.97 "Hg30 mi
7:00 PM86 °FPartly sunny.12 mph31%29.96 "Hg30 mi
Weather by CustomWeather, © 2016

See weather overviewHow to use our weather pages